EST,Max TemperatureF,Mean TemperatureF,Min TemperatureF,Max Dew PointF,MeanDew PointF,Min DewpointF,Max Humidity, Mean Humidity, Min Humidity, Max Sea Level PressureIn, Mean Sea Level PressureIn, Min Sea Level PressureIn, Max VisibilityMiles, Mean VisibilityMiles, Min VisibilityMiles, Max Wind SpeedMPH, Mean Wind SpeedMPH, Max Gust SpeedMPH,PrecipitationIn, CloudCover, Events, WindDirDegrees
2011-11-1,64,46,28,37,29,18,100,59,17,30.36,30.29,30.25,10,7,0,14,3,30,0.00,1,Fog,337
2011-11-2,63,47,30,36,33,29,100,66,32,30.44,30.35,30.28,10,10,8,10,2,15,0.00,0,,152
2011-11-3,60,45,29,50,42,28,100,76,51,30.27,30.01,29.79,10,8,2,23,6,31,0.82,5,Rain,196
2011-11-4,54,48,42,49,44,39,96,81,66,30.14,29.90,29.75,10,10,4,28,14,35,0.26,6,Rain,349
2011-11-5,55,43,31,39,32,23,100,66,32,30.41,30.27,30.14,10,5,0,13,3,16,0.00,1,Fog,181
2011-11-6,61,47,32,43,35,28,92,69,46,30.49,30.41,30.35,10,10,10,13,3,24,0.00,4,,158
2011-11-7,68,50,32,44,37,32,100,64,27,30.44,30.39,30.28,10,4,0,15,2,18,0.00,3,Fog,327
2011-11-8,67,50,33,45,37,32,100,71,42,30.34,30.29,30.17,10,5,0,15,2,25,0.00,3,Fog,139
2011-11-9,63,50,36,52,42,35,100,80,60,30.19,30.12,29.97,10,6,0,13,2,23,0.03,4,Fog-Rain,176
2011-11-10,53,45,37,52,39,18,100,70,40,30.01,29.96,29.90,10,9,3,24,14,33,T,6,,342
2011-11-11,50,40,29,22,17,14,69,46,22,30.21,30.11,30.02,10,10,10,20,8,26,0.00,0,,343
2011-11-12,63,44,24,28,25,20,88,55,21,30.32,30.24,30.19,10,10,10,16,5,21,0.00,0,,170
2011-11-13,58,50,42,42,31,23,66,47,28,30.20,30.15,30.07,10,10,10,21,9,28,0.00,0,,174
2011-11-14,68,60,52,54,53,52,80,72,63,30.08,30.02,29.99,10,10,10,20,9,24,0.00,6,,192
2011-11-15,69,64,59,61,57,53,90,79,67,30.04,29.96,29.92,10,9,3,20,9,24,0.03,6,Rain,178
2011-11-16,68,60,52,63,59,46,100,91,81,29.96,29.85,29.70,10,9,3,17,9,27,0.69,7,Rain,172
2011-11-17,52,43,33,45,31,13,86,65,44,30.31,30.06,29.86,10,10,10,31,15,39,0.02,5,Rain,344
2011-11-18,48,37,25,22,18,13,75,53,31,30.47,30.41,30.32,10,10,10,13,5,18,0.00,0,,140
2011-11-19,57,42,26,45,34,21,81,63,45,30.44,30.37,30.32,10,10,10,12,4,15,0.00,6,,151
2011-11-20,69,57,45,57,50,39,100,81,61,30.35,30.27,30.20,10,10,9,18,5,23,0.00,5,,170
2011-11-21,71,59,47,57,52,46,100,81,61,30.30,30.26,30.19,10,5,0,24,3,31,0.30,4,Fog-Rain,349
2011-11-22,68,60,52,61,55,52,100,84,68,30.23,30.12,29.86,10,6,0,22,8,30,0.56,7,Fog-Rain,181
2011-11-23,62,53,44,59,46,34,100,81,61,30.21,29.97,29.81,10,8,0,32,13,43,0.02,4,Fog,344
2011-11-24,65,50,35,35,30,17,82,49,16,30.40,30.33,30.24,10,10,10,21,5,24,0.00,0,,348
2011-11-25,67,47,27,36,25,14,100,57,13,30.43,30.35,30.27,10,9,1,16,3,21,0.00,0,,170
2011-11-26,63,47,31,49,40,27,92,74,55,30.37,30.27,30.17,10,10,10,20,6,26,0.00,5,,182
2011-11-27,63,60,56,54,51,48,83,72,60,30.15,30.05,29.94,10,10,10,21,11,31,T,8,Rain,155
2011-11-28,60,51,42,57,53,39,96,87,78,29.95,29.84,29.69,10,6,2,22,11,32,2.59,8,Rain,153
2011-11-29,42,37,32,39,32,29,89,80,70,29.85,29.77,29.72,10,10,8,17,8,22,T,7,Rain-Snow,188
2011-11-30,45,39,32,30,29,27,89,71,53,30.17,30.00,29.84,10,10,10,22,12,26,0.00,3,,349